North Platte, NE

12:35 PM CDT on June 23, 2017 (GMT -0500)
North Platte Regional-Bird

Weather History for KLBF - May, 2013

Change the Weather History Date:

Monday, May 13, 2013

  Actual Average Record
Temperature  
Mean Temperature 71 °F 57 °F  
Max Temperature 93 °F 71 °F 93 °F (2013)
Min Temperature 48 °F 43 °F 24 °F (1953)
Degree Days  
Heating Degree Days 0 9  
Month to date heating degree days 184 135  
Since 1 July heating degree days 6670 6525  
Cooling Degree Days 6 1  
Month to date cooling degree days 6 3  
Year to date cooling degree days 7 6  
Growing Degree Days 20 (Base 50)    
Moisture  
Dew Point 48 °F    
Average Humidity 53    
Maximum Humidity 86    
Minimum Humidity 20    
Precipitation  
Precipitation 0.00 in 0.11 in 1.84 in (1902)
Month to date precipitation 1.39 1.23  
Year to date precipitation 4.43 5.39  
Snow  
Snow 0.00 in 0.00 in 0.10 in (1934)
Month to date snowfall 0.9 0.0  
Since 1 July snowfall 30.2 28.5  
Snow Depth 0.00 in    
Sea Level Pressure  
Sea Level Pressure 29.93 in    
Wind  
Wind Speed 5 mph (SSW)    
Max Wind Speed 15 mph    
Max Gust Speed 21 mph    
Visibility 10 miles    
Events      
T = Trace of Precipitation, MM = Missing Value Source: NWS Daily Summary

Daily Weather History Graph

Daily Weather History Graph

Search for Another Location

Airport or City:

Trip Planner

Search our weather history database for the weather conditions in past years. The results will help you decide how hot, cold, wet, or windy it might be!

Date:

Astronomy

May. 13, 2013 Rise Set
Actual Time 6:26 AM CDT 8:52 PM CDT
Civil Twilight 5:55 AM CDT 9:23 PM CDT
Nautical Twilight 5:16 AM CDT 10:02 PM CDT
Astronomical Twilight 4:33 AM CDT 10:45 PM CDT
Moon 9:13 AM CDT (5/13) No Moon Set
Length of Visible Light 15h 28m
Length of Day
14h 26m
Waxing Crescent, 12% of the Moon is Illuminated
May 13
Waxing Crescent
May 17
First Quarter
May 24
Full
May 31
Last Quarter
Jun 8
New

Hourly Weather History & Observations

Time (CDT) Temp. Heat Index Dew Point Humidity Pressure Visibility Wind Dir Wind Speed Gust Speed Precip Events Conditions
12:53 AM 59.0 °F - 46.0 °F 62% 30.03 in 10.0 mi SSE 9.2 mph - N/A   Clear
1:53 AM 57.9 °F - 46.0 °F 65% 30.02 in 10.0 mi South 9.2 mph - N/A   Clear
2:53 AM 57.9 °F - 46.0 °F 65% 30.01 in 10.0 mi Variable 4.6 mph - N/A   Clear
3:53 AM 55.0 °F - 46.0 °F 72% 30.00 in 10.0 mi SW 4.6 mph - N/A   Clear
4:53 AM 52.0 °F - 45.0 °F 77% 29.99 in 10.0 mi SSW 3.5 mph - N/A   Clear
5:53 AM 48.9 °F - 44.1 °F 83% 29.98 in 10.0 mi Calm Calm - N/A   Clear
6:53 AM 53.1 °F - 45.0 °F 74% 29.96 in 10.0 mi SSE 4.6 mph - N/A   Clear
7:53 AM 57.0 °F - 48.0 °F 72% 29.98 in 10.0 mi Calm Calm - N/A   Clear
8:53 AM 62.1 °F - 46.9 °F 58% 29.98 in 10.0 mi SW 8.1 mph - N/A   Clear
9:53 AM 66.0 °F - 48.0 °F 52% 29.98 in 10.0 mi West 8.1 mph - N/A   Clear
10:53 AM 72.0 °F - 48.9 °F 44% 29.96 in 10.0 mi West 6.9 mph - N/A   Clear
11:53 AM 78.1 °F - 48.9 °F 36% 29.94 in 10.0 mi West 5.8 mph - N/A   Clear
12:53 PM 84.0 °F - 48.9 °F 29% 29.91 in 10.0 mi West 4.6 mph - N/A   Clear
1:53 PM 89.1 °F - 46.9 °F 23% 29.88 in 10.0 mi WSW 8.1 mph - N/A   Clear
3:53 PM 93.0 °F - 46.0 °F 20% 29.86 in 10.0 mi NW 9.2 mph - N/A   Partly Cloudy
4:53 PM 88.0 °F 85.7 °F 53.1 °F 30% 29.86 in 10.0 mi NW 4.6 mph - N/A   Clear
5:53 PM 88.0 °F 85.7 °F 53.1 °F 30% 29.86 in 10.0 mi East 3.5 mph - N/A   Clear
6:53 PM 86.0 °F - 48.2 °F 27% 29.91 in 10.0 mi South 5.8 mph - N/A   Clear
7:53 PM 82.9 °F 81.8 °F 53.1 °F 36% 29.84 in 10.0 mi SSW 6.9 mph - N/A   Clear
8:53 PM 77.0 °F - 48.0 °F 36% 29.83 in 10.0 mi SSW 4.6 mph - N/A   Clear
9:53 PM 66.0 °F - 48.9 °F 54% 29.85 in 10.0 mi SSE 3.5 mph - N/A   Clear
10:53 PM 66.0 °F - 46.0 °F 48% 29.85 in 10.0 mi SE 3.5 mph - N/A   Clear
11:53 PM 62.1 °F - 46.9 °F 58% 29.83 in 10.0 mi SE 3.5 mph - N/A   Clear